Mobile, AL

4:20 PM CST on January 20, 2017 (GMT -0600)
Mobile Regional Airport

Weather History for KMOB - August, 2014

Change the Weather History Date:

Tuesday, August 5, 2014

  Actual Average Record
Temperature  
Mean Temperature 81 °F 82 °F  
Max Temperature 91 °F 91 °F 101 °F (1947)
Min Temperature 70 °F 73 °F 68 °F (1950)
Cooling Degree Days 16 17  
Month to date cooling degree days 76 85  
Year to date cooling degree days 1287 1496  
Since 1 June cooling degree days 949 1051  
Growing Degree Days 30 (Base 50)    
Moisture  
Dew Point 73 °F    
Average Humidity 76    
Maximum Humidity 100    
Minimum Humidity 52    
Precipitation  
Precipitation T in 0.26 in 3.56 in (1881)
Month to date precipitation T 1.30  
Year to date precipitation 54.57 41.50  
Sea Level Pressure  
Sea Level Pressure 30.04 in    
Wind  
Wind Speed 3 mph (WSW)    
Max Wind Speed 16 mph    
Max Gust Speed 18 mph    
Visibility 9 miles    
Events Thunderstorm    
T = Trace of Precipitation, MM = Missing Value Source: NWS Daily Summary

Daily Weather History Graph

Daily Weather History Graph

Search for Another Location

Airport or City:

Trip Planner

Search our weather history database for the weather conditions in past years. The results will help you decide how hot, cold, wet, or windy it might be!

Date:

Astronomy

Aug. 05, 2014 Rise Set
Actual Time 6:13 AM CDT 7:44 PM CDT
Civil Twilight 5:47 AM CDT 8:10 PM CDT
Nautical Twilight 5:16 AM CDT 8:41 PM CDT
Astronomical Twilight 4:43 AM CDT 9:13 PM CDT
Moon 2:57 PM CDT (8/5) 1:00 AM CDT (8/5)
Length of Visible Light 14h 22m
Length of Day
13h 30m
Waxing Gibbous, 68% of the Moon is Illuminated
Aug 5
Waxing Gibbous
Aug 10
Full
Aug 17
Last Quarter
Aug 25
New
Sep 2
First Quarter

Hourly Weather History & Observations

Time (CDT) Temp. Heat Index Dew Point Humidity Pressure Visibility Wind Dir Wind Speed Gust Speed Precip Events Conditions
12:56 AM 75.0 °F - 75.0 °F 100% 30.01 in 8.0 mi Calm Calm - N/A   Scattered Clouds
1:56 AM 73.9 °F - 73.9 °F 100% 29.99 in 5.0 mi WNW 4.6 mph - N/A   Clear
2:56 AM 73.0 °F - 73.0 °F 100% 29.99 in 5.0 mi WNW 3.5 mph - N/A   Clear
3:56 AM 72.0 °F - 72.0 °F 100% 30.00 in 10.0 mi Calm Calm - N/A   Clear
4:56 AM 71.1 °F - 71.1 °F 100% 30.01 in 10.0 mi Calm Calm - N/A   Clear
5:56 AM 71.1 °F - 71.1 °F 100% 30.02 in 7.0 mi Calm Calm - N/A   Scattered Clouds
6:56 AM 72.0 °F - 72.0 °F 100% 30.04 in 7.0 mi Calm Calm - N/A   Scattered Clouds
7:56 AM 78.1 °F - 72.0 °F 81% 30.05 in 10.0 mi North 3.5 mph - N/A   Scattered Clouds
8:56 AM 82.0 °F 87.4 °F 73.0 °F 74% 30.06 in 10.0 mi NNW 4.6 mph - N/A   Partly Cloudy
9:56 AM 84.9 °F 91.4 °F 73.0 °F 67% 30.08 in 10.0 mi Calm Calm - N/A   Partly Cloudy
10:56 AM 84.9 °F 90.7 °F 72.0 °F 65% 30.09 in 10.0 mi Calm Calm - N/A   Mostly Cloudy
11:56 AM 88.0 °F 94.7 °F 72.0 °F 59% 30.08 in 10.0 mi SW 4.6 mph - N/A   Mostly Cloudy
12:56 PM 91.0 °F 97.6 °F 71.1 °F 52% 30.07 in 7.0 mi SSW 4.6 mph - N/A   Mostly Cloudy
1:56 PM 84.9 °F 91.4 °F 73.0 °F 67% 30.05 in 10.0 mi SE 10.4 mph - N/A   Mostly Cloudy
2:56 PM 89.1 °F 97.0 °F 73.0 °F 59% 30.04 in 10.0 mi Calm Calm - 0.00 in   Mostly Cloudy
3:08 PM 89.1 °F 97.0 °F 73.0 °F 59% 30.04 in 10.0 mi Variable 3.5 mph - N/A Thunderstorm Mostly Cloudy
3:23 PM 90.0 °F 99.0 °F 73.9 °F 59% 30.03 in 10.0 mi Variable 3.5 mph - N/A   Mostly Cloudy
3:56 PM 90.0 °F 100.2 °F 75.0 °F 61% 30.02 in 10.0 mi North 5.8 mph - N/A Thunderstorm Mostly Cloudy
4:17 PM 89.1 °F 97.0 °F 73.0 °F 59% 30.03 in 10.0 mi Calm Calm - N/A   Mostly Cloudy
4:56 PM 84.9 °F 93.3 °F 75.0 °F 72% 30.02 in 10.0 mi Calm Calm - N/A   Mostly Cloudy
5:56 PM 88.0 °F 96.5 °F 73.9 °F 63% 30.01 in 10.0 mi Variable 4.6 mph - N/A   Mostly Cloudy
6:56 PM 84.0 °F 91.2 °F 73.9 °F 72% 30.03 in 10.0 mi SSW 9.2 mph - N/A   Mostly Cloudy
7:56 PM 80.1 °F 84.5 °F 73.9 °F 81% 30.03 in 10.0 mi South 5.8 mph - N/A   Mostly Cloudy
8:56 PM 79.0 °F - 73.9 °F 84% 30.04 in 10.0 mi SSW 3.5 mph - N/A   Scattered Clouds
9:56 PM 79.0 °F - 75.0 °F 88% 30.05 in 10.0 mi WSW 3.5 mph - N/A   Scattered Clouds
10:56 PM 78.1 °F - 75.0 °F 90% 30.06 in 10.0 mi Calm Calm - N/A   Scattered Clouds
11:56 PM 77.0 °F - 75.0 °F 94% 30.06 in 10.0 mi Calm Calm - N/A   Clear